Snoqualmie River: Snoqualmie Falls station

back to: Snoqualmie river
Snoqualmie Falls station Summary - (NOAA Hydrograph: SQUW1)
flood stage: 13.43 ft
Latest reading:
Wed01/27 01:30 pm 4.62 ft 1470 cfs (-36/hr)
Past 24hr max:
Tue01/26 01:30 pm 4.75 ft 1579 cfs
Forecasted crests: (published Wed 01/27/21 07:37 am)
Mon02/01 10:00 pm 5.49 ft 2283 cfs

Snoqualmie Falls station Details

Latest Readings

Last 100 Readings:
Wed01/27 01:30 pm 4.62 ft 1470 cfs
Wed01/27 01:15 pm 4.63 ft 1479 cfs
Wed01/27 01:00 pm 4.62 ft 1470 cfs
Wed01/27 12:45 pm 4.62 ft 1470 cfs
Wed01/27 12:30 pm 4.61 ft 1462 cfs
Wed01/27 12:15 pm 4.63 ft 1479 cfs
Wed01/27 12:00 pm 4.63 ft 1479 cfs
Wed01/27 11:45 am 4.62 ft 1470 cfs
Wed01/27 11:30 am 4.62 ft 1470 cfs
Wed01/27 11:15 am 4.64 ft 1487 cfs
Wed01/27 11:00 am 4.65 ft 1495 cfs
Wed01/27 10:45 am 4.65 ft 1495 cfs
Wed01/27 10:30 am 4.66 ft 1503 cfs
Wed01/27 10:15 am 4.64 ft 1487 cfs
Wed01/27 10:00 am 4.66 ft 1503 cfs
Wed01/27 09:45 am 4.64 ft 1487 cfs
Wed01/27 09:30 am 4.64 ft 1487 cfs
Wed01/27 09:15 am 4.65 ft 1495 cfs
Wed01/27 09:00 am 4.65 ft 1495 cfs
Wed01/27 08:45 am 4.65 ft 1495 cfs
Wed01/27 08:30 am 4.63 ft 1479 cfs
Wed01/27 08:15 am 4.63 ft 1479 cfs
Wed01/27 08:00 am 4.63 ft 1479 cfs
Wed01/27 07:45 am 4.63 ft 1479 cfs
Wed01/27 07:30 am 4.63 ft 1479 cfs
Wed01/27 07:15 am 4.65 ft 1495 cfs
Wed01/27 07:00 am 4.64 ft 1487 cfs
Wed01/27 06:45 am 4.65 ft 1495 cfs
Wed01/27 06:30 am 4.65 ft 1495 cfs
Wed01/27 06:15 am 4.65 ft 1495 cfs
Wed01/27 06:00 am 4.64 ft 1487 cfs
Wed01/27 05:45 am 4.65 ft 1495 cfs
Wed01/27 05:30 am 4.65 ft 1495 cfs
Wed01/27 05:15 am 4.65 ft 1495 cfs
Wed01/27 05:00 am 4.65 ft 1495 cfs
Wed01/27 04:45 am 4.67 ft 1512 cfs
Wed01/27 04:30 am 4.66 ft 1503 cfs
Wed01/27 04:15 am 4.67 ft 1512 cfs
Wed01/27 04:00 am 4.65 ft 1495 cfs
Wed01/27 03:45 am 4.67 ft 1512 cfs
Wed01/27 03:30 am 4.67 ft 1512 cfs
Wed01/27 03:15 am 4.66 ft 1503 cfs
Wed01/27 03:00 am 4.68 ft 1520 cfs
Wed01/27 02:45 am 4.67 ft 1512 cfs
Wed01/27 02:30 am 4.67 ft 1512 cfs
Wed01/27 02:15 am 4.68 ft 1520 cfs
Wed01/27 02:00 am 4.69 ft 1529 cfs
Wed01/27 01:45 am 4.69 ft 1529 cfs
Wed01/27 01:30 am 4.69 ft 1529 cfs
Wed01/27 01:15 am 4.69 ft 1529 cfs
Wed01/27 01:00 am 4.69 ft 1529 cfs
Wed01/27 12:45 am 4.68 ft 1520 cfs
Wed01/27 12:30 am 4.69 ft 1529 cfs
Wed01/27 12:15 am 4.69 ft 1529 cfs
Wed01/27 12:00 am 4.69 ft 1529 cfs
Tue01/26 11:45 pm 4.68 ft 1520 cfs
Tue01/26 11:30 pm 4.7 ft 1537 cfs
Tue01/26 11:15 pm 4.7 ft 1537 cfs
Tue01/26 11:00 pm 4.69 ft 1529 cfs
Tue01/26 10:45 pm 4.69 ft 1529 cfs
Tue01/26 10:30 pm 4.7 ft 1537 cfs
Tue01/26 10:15 pm 4.7 ft 1537 cfs
Tue01/26 10:00 pm 4.7 ft 1537 cfs
Tue01/26 09:45 pm 4.71 ft 1545 cfs
Tue01/26 09:30 pm 4.71 ft 1545 cfs
Tue01/26 09:15 pm 4.72 ft 1554 cfs
Tue01/26 09:00 pm 4.71 ft 1545 cfs
Tue01/26 08:45 pm 4.71 ft 1545 cfs
Tue01/26 08:30 pm 4.71 ft 1545 cfs
Tue01/26 08:15 pm 4.71 ft 1545 cfs
Tue01/26 08:00 pm 4.71 ft 1545 cfs
Tue01/26 07:45 pm 4.72 ft 1554 cfs
Tue01/26 07:30 pm 4.73 ft 1562 cfs
Tue01/26 07:15 pm 4.74 ft 1571 cfs
Tue01/26 07:00 pm 4.72 ft 1554 cfs
Tue01/26 06:45 pm 4.71 ft 1545 cfs
Tue01/26 06:30 pm 4.73 ft 1562 cfs
Tue01/26 06:15 pm 4.73 ft 1562 cfs
Tue01/26 06:00 pm 4.73 ft 1562 cfs
Tue01/26 05:45 pm 4.73 ft 1562 cfs
Tue01/26 05:30 pm 4.74 ft 1571 cfs
Tue01/26 05:15 pm 4.73 ft 1562 cfs
Tue01/26 05:00 pm 4.72 ft 1554 cfs
Tue01/26 04:45 pm 4.71 ft 1545 cfs
Tue01/26 04:30 pm 4.71 ft 1545 cfs
Tue01/26 04:15 pm 4.73 ft 1562 cfs
Tue01/26 04:00 pm 4.74 ft 1571 cfs
Tue01/26 03:45 pm 4.73 ft 1562 cfs
Tue01/26 03:30 pm 4.75 ft 1579 cfs
Tue01/26 03:15 pm 4.75 ft 1579 cfs
Tue01/26 03:00 pm 4.75 ft 1579 cfs
Tue01/26 02:45 pm 4.75 ft 1579 cfs
Tue01/26 02:30 pm 4.75 ft 1579 cfs
Tue01/26 02:15 pm 4.75 ft 1579 cfs
Tue01/26 02:00 pm 4.73 ft 1562 cfs
Tue01/26 01:45 pm 4.75 ft 1579 cfs
Tue01/26 01:30 pm 4.75 ft 1579 cfs
Tue01/26 01:15 pm 4.75 ft 1579 cfs
Tue01/26 01:00 pm 4.74 ft 1571 cfs
Tue01/26 12:45 pm 4.75 ft 1579 cfs

Latest Forecasts

Currently Forecasted Readings:
Wed01/27 10:00 am 4.59 ft 1447 cfs
Wed01/27 04:00 pm 4.53 ft 1399 cfs
Wed01/27 10:00 pm 4.5 ft 1370 cfs
Thu01/28 04:00 am 4.46 ft 1340 cfs
Thu01/28 10:00 am 4.42 ft 1312 cfs
Thu01/28 04:00 pm 4.39 ft 1285 cfs
Thu01/28 10:00 pm 4.37 ft 1260 cfs
Fri01/29 04:00 am 4.35 ft 1242 cfs
Fri01/29 10:00 am 4.33 ft 1224 cfs
Fri01/29 04:00 pm 4.3 ft 1202 cfs
Fri01/29 10:00 pm 4.27 ft 1173 cfs
Sat01/30 04:00 am 4.24 ft 1146 cfs
Sat01/30 10:00 am 4.2 ft 1121 cfs
Sat01/30 04:00 pm 4.18 ft 1108 cfs
Sat01/30 10:00 pm 4.21 ft 1128 cfs
Sun01/31 04:00 am 4.27 ft 1177 cfs
Sun01/31 10:00 am 4.34 ft 1236 cfs
Sun01/31 04:00 pm 4.49 ft 1363 cfs
Sun01/31 10:00 pm 4.79 ft 1616 cfs
Mon02/01 04:00 am 5.09 ft 1885 cfs
Mon02/01 10:00 am 5.27 ft 2057 cfs
Mon02/01 04:00 pm 5.39 ft 2180 cfs
Mon02/01 10:00 pm 5.49 ft 2283 cfs
Tue02/02 04:00 am 5.47 ft 2269 cfs
Tue02/02 10:00 am 5.35 ft 2141 cfs
Tue02/02 04:00 pm 5.18 ft 1972 cfs
Tue02/02 10:00 pm 5.04 ft 1835 cfs
Wed02/03 04:00 am 4.93 ft 1740 cfs
Wed02/03 10:00 am 4.8 ft 1627 cfs
Wed02/03 04:00 pm 4.67 ft 1510 cfs
Wed02/03 10:00 pm 4.55 ft 1413 cfs
Thu02/04 04:00 am 4.45 ft 1332 cfs
Thu02/04 10:00 am 4.37 ft 1266 cfs
Thu02/04 04:00 pm 4.31 ft 1214 cfs
Thu02/04 10:00 pm 4.26 ft 1171 cfs
Fri02/05 04:00 am 4.23 ft 1139 cfs
Fri02/05 10:00 am 4.19 ft 1118 cfs
Fri02/05 04:00 pm 4.16 ft 1096 cfs
Fri02/05 10:00 pm 4.11 ft 1071 cfs
Sat02/06 04:00 am 4.09 ft 1057 cfs

Snoqualmie River flood gauge data supplied by the
National Weather Service Northwest River Forecast Center.

Sign up for Floodzilla alerts.